Regional Weather Roundup
Issued by NWS

Home | Current Version | Previous Version | Text Only | Print | Product List | Glossary On
Versions: 1 2 3 4 5 6 7 8 9 10 11 12 13 14 15 16 17 18 19 20 21 22 23 24 25 26 27 28 29 30 31 32 33 34 35 36 37 38 39 40 41 42 43 44 45 46 47 48 49 50
000
ASUS43 KMKX 201411
RWRWI

WISCONSIN REGIONAL WEATHER ROUNDUP
NATIONAL WEATHER SERVICE MILWAUKEE/SULLIVAN WI
900 AM CDT WED AUG 20 2014

NOTE: "FAIR" INDICATES FEW OR NO CLOUDS BELOW 12,000 FEET WITH NO
SIGNIFICANT WEATHER AND/OR OBSTRUCTIONS TO VISIBILITY.

WIZ001-002-006>008-014>016-023>028-201500-
NORTHWEST WISCONSIN

CITY           SKY/WX    TMP DP  RH WIND       PRES   REMARKS
SUPERIOR ARPT  CLOUDY    63  61  93 CALM      29.88S
ASHLAND        CLOUDY    62  59  90 S3        29.90R
HAYWARD        CLOUDY    62  60  93 NE6       29.89R
SIREN          CLOUDY    62  61  98 E3        29.89R
RICE LAKE      CLOUDY    63  59  89 CALM      29.91R
LADYSMITH      CLOUDY    63  60  89 NE5       29.90R
EAU CLAIRE     CLOUDY    62  61  96 E6        29.89R
MENOMONIE      CLOUDY    64  61  89 SE5       29.91R
NEW RICHMOND   CLOUDY    61  61 100 CALM      29.91R
OSCEOLA        CLOUDY    63  63 100 S6        29.93R
$$

WIZ003>005-009-010-017-018-201500-
NORTH CENTRAL WISCONSIN

CITY           SKY/WX    TMP DP  RH WIND       PRES   REMARKS
WOODRUFF       CLOUDY    62  59  91 N5        29.89S
RHINELANDER    CLOUDY    60  57  89 NW6       29.90R
EAGLE RIVER    CLOUDY    60  57  92 N6        29.88R
LAND O LAKES   CLOUDY    59  57  92 NW3       29.90R
PHILLIPS       CLOUDY    59  57  94 N3        29.88S
TOMAHAWK       CLOUDY    60  58  92 NW6       29.89S
MEDFORD        CLOUDY    59  58  96 N3        29.89R
MERRILL        CLOUDY    62  60  93 N6        29.87S
$$

WIZ029-030-035-036-043>047-201500-
CENTRAL WISCONSIN

CITY           SKY/WX    TMP DP  RH WIND       PRES   REMARKS
WAUSAU         CLOUDY    63  59  87 NW7       29.86R
MOSINEE        CLOUDY    61  61 100 NW3       29.89R
MARSHFIELD     CLOUDY    61  60  97 NW5       29.88S FOG
STEVENS POINT  CLOUDY    59  58  96 NW6       29.89R FOG
WAUPACA        CLOUDY    66  63  90 N5        29.88R
WAUTOMA        CLOUDY    67  65  93 W6        29.87S
WISC RAPIDS    CLOUDY    64  61  90 NW6       29.89R
CAMP DOUGLAS   CLOUDY    64  64 100 VRB2      29.89R FOG
$$

WIZ011>013-019>022-031-037>040-048>050-201500-
NORTHEAST WISCONSIN

CITY           SKY/WX    TMP DP  RH WIND       PRES   REMARKS
ANTIGO         CLOUDY    61  59  94 N8        29.87R
STURGEON BAY   CLOUDY    64  59  82 N8        29.84R
GREEN BAY      PTSUNNY   68  62  81 NW7       29.85R
MANITOWOC      PTSUNNY   67  61  81 NW5       29.85R
APPLETON       NOT AVBL
CLINTONVILLE   CLOUDY    64  59  82 N8        29.85R
OSHKOSH        MOSUNNY   68  63  84 NW3       29.85R
$$

WIZ032>034-041-042-053>061-201500-
SOUTHWEST WISCONSIN

CITY           SKY/WX    TMP DP  RH WIND       PRES   REMARKS
LA CROSSE      FOG       67  65  93 NW5       29.86F VSB 3/4
SPARTA         FOG       63  62  98 N3        29.88F VSB 1/2
VIROQUA        FAIR      69  67  93 CALM      29.88S
BOSCOBEL       PTSUNNY   67  65  93 W5        29.88R FOG
PRAIRIE DU CHI MOSUNNY   67  66  95 CALM      29.88R
PLATTEVILLE    FAIR      71  67  88 SW5       29.90R
$$

WIZ056-057-062-063-064-067-068-201500-
SOUTH CENTRAL WISCONSIN

CITY           SKY/WX    TMP DP  RH WIND       PRES   REMARKS
BARABOO/DELLS  SUNNY     70  62  76 CALM      29.87S
LONE ROCK      PTSUNNY   70  65  84 CALM      29.87R
WATERTOWN      SUNNY     70  66  86 W3        29.86S
MADISON        MOSUNNY   74  64  71 VRB3      29.86S
MIDDLETON      FAIR      74  67  79 W5        29.88R
MONROE         SUNNY     72  66  83 CALM      29.89R
JANESVILLE     SUNNY     73  63  68 CALM      29.87R
$$

WIZ051-052-058>065-066-070>072-201500-
SOUTHEAST WISCONSIN

CITY           SKY/WX    TMP DP  RH WIND       PRES   REMARKS
MILWAUKEE      MOSUNNY   73  63  70 W7        29.86R
WAUKESHA       SUNNY     68  63  83 W5        29.88
MILWAUKEE/TIMM SUNNY     72  61  68 W6        29.86R
RACINE         SUNNY     73  64  73 VRB5      29.88R
BURLINGTON     SUNNY     70  66  85 CALM      29.87R
KENOSHA        SUNNY     73  67  81 W7        29.87R
FOND DU LAC    MOSUNNY   69  62  78 CALM      29.86R
SHEBOYGAN      PTSUNNY   68  63  84 W5        29.86R
WEST BEND      MOSUNNY   70  61  73 CALM      29.86R
JUNEAU         SUNNY     68  40  36 W6        29.88R
$$

LSZ147-162-201500-
LAKE SUPERIOR

STATION/POSITION TIME  TEMP    WIND        PRES    WAVE
                       AIR SEA DIR/SP/G            HT/PER
                 (UTC) (F)     (DEG/KT/KT) (MB)    (FT/S)
W MID LAKE BUOY  1350   58 57  260/  4/  6 1011.1R   1
DEVILS ISLAND    1400   60     240/  9/ 10 1012.0R
PORT WING        1340   63     210/  2/  3 1012.2R
SAXON HARBOR     1340   61      CALM  /  3 1012.2R
$$

LMZ867-665-643>646-201500-
LAKE MICHIGAN

STATION/POSITION TIME  TEMP    WIND        PRES    WAVE
                       AIR SEA DIR/SP/G            HT/PER
                 (UTC) (F)     (DEG/KT/KT) (MB)    (FT/S)
N MID LAKE BUOY  1350   61 62  330/ 12/ 12 1009.0R   1/ 3
NORTHPORT PIER   1300   62     350/  9/ 12 1009.8R
SISTER BAY       1211   62     350/ 12/ 13   N/A
KEWAUNEE LAKESHO 1300   64     310/  4/  6 1009.0R
SHEBOYGAN LAKESH 1400   66 66   30/  4/  4 1010.8R
ATWATER BUOY     1400   69     120/  2     1012.4R
MILWAUKEE LAKESH 1300   71     260/  2/  3   N/A
S MID LAKE BUOY  1350   67 66  260/  6/  8 1011.1R   0
KENOSHA   LAKESH 1400   73     260/  5/  7 1011.2R
$$

TC  - TEMPERATURE IN CELSIUS
VSB - VISIBILITY IN STATUTE MILES
WCI - WIND CHILL INDEX
HX  - HEAT INDEX



USA.gov is the U.S. government's official web portal to all federal, state and local government web resources and services.